Location: Beccas
(43.4309°N, 0.1528°E)
Time: 10:33:34
(UTC+00:00)

Cosmos 1626 Rocket - Pass Details

Date: 15 October 2021
Orbit: 603 x 630 km, 82.5° (Epoch: 07 December)

Event Time Altitude Azimuth Distance (km) Brightness Sun altitude
Rises 19:05:49 0° 356° (N) 2,876 7.1 -20.7°
Reaches altitude 10° 19:08:07 10° 2° (N) 1,965 6.2 -21.1°
Enters shadow 19:11:09 38° 32° (NNE) 934 4.2 -21.6°
